Weather History for KDSM - March, 2013

Change the Weather History Date:

Saturday, March 30, 2013

  Actual Average Record
Temperature  
Mean Temperature 53 °F 45 °F  
Max Temperature 61 °F 56 °F 83 °F (1967)
Min Temperature 44 °F 35 °F 6 °F (1964)
Degree Days  
Heating Degree Days 12 20  
Month to date heating degree days 951 777  
Since 1 July heating degree days 5308 5608  
Cooling Degree Days 0 0  
Month to date cooling degree days 0 0  
Year to date cooling degree days 0 0  
Growing Degree Days 4 (Base 50)    
Moisture  
Dew Point 44 °F    
Average Humidity 77    
Maximum Humidity 93    
Minimum Humidity 60    
Precipitation  
Precipitation 0.13 in 0.09 in 1.88 in (1998)
Month to date precipitation 1.67 2.20  
Year to date precipitation 4.52 4.48  
Snow  
Snow 0.00 in 0.10 in 4.20 in (1901)
Month to date snowfall 9.6 5.1  
Since 1 July snowfall 48.3 33.4  
Snow Depth 0.00 in    
Sea Level Pressure  
Sea Level Pressure 29.96 in    
Wind  
Wind Speed 7 mph (SSE)    
Max Wind Speed 17 mph    
Max Gust Speed 20 mph    
Visibility 7 miles    
Events Rain    
T = Trace of Precipitation, MM = Missing Value Source: NWS Daily Summary

Daily Weather History Graph

Daily Weather History Graph

Search for Another Location

Airport or City:

Trip Planner

Search our weather history database for the weather conditions in past years. The results will help you decide how hot, cold, wet, or windy it might be!

Date:

Astronomy

Mar. 30, 2013 Rise Set
Actual Time 7:00 AM CDT 7:38 PM CDT
Civil Twilight 6:32 AM CDT 8:06 PM CDT
Nautical Twilight 5:59 AM CDT 8:39 PM CDT
Astronomical Twilight 5:25 AM CDT 9:13 PM CDT
Moon 11:48 PM CDT (3/30) 8:53 AM CDT (3/30)
Length of Visible Light 13h 33m
Length of Day
12h 37m
Waning Gibbous, 86% of the Moon is Illuminated
Mar 30
Waning Gibbous
Apr 2
Last Quarter
Apr 10
New
Apr 18
First Quarter
Apr 25
Full

Hourly Weather History & Observations

Time (CDT) Temp. Dew Point Humidity Pressure Visibility Wind Dir Wind Speed Gust Speed Precip Events Conditions
12:54 AM 46.9 °F 34.0 °F 61% 30.10 in 10.0 mi SSE 11.5 mph - N/A   Scattered Clouds
1:54 AM 46.9 °F 34.0 °F 61% 30.10 in 10.0 mi SSE 9.2 mph - N/A   Overcast
2:54 AM 48.0 °F 35.1 °F 61% 30.09 in 10.0 mi South 9.2 mph - N/A   Overcast
3:54 AM 48.0 °F 36.0 °F 63% 30.07 in 10.0 mi South 6.9 mph - N/A   Overcast
4:54 AM 48.9 °F 36.0 °F 61% 30.04 in 10.0 mi South 9.2 mph - N/A   Overcast
5:54 AM 48.9 °F 37.9 °F 66% 30.01 in 10.0 mi South 9.2 mph - 0.00 in Rain Light Rain
6:54 AM 48.0 °F 39.9 °F 74% 30.01 in 8.0 mi SSE 5.8 mph - 0.01 in Rain Light Rain
7:54 AM 48.9 °F 41.0 °F 74% 30.03 in 7.0 mi East 4.6 mph - 0.01 in Rain Light Rain
8:14 AM 48.0 °F 42.1 °F 80% 30.01 in 2.5 mi East 5.8 mph - 0.02 in Rain Light Rain
8:23 AM 48.9 °F 42.1 °F 77% 30.01 in 3.0 mi SE 6.9 mph 16.1 mph 0.03 in Rain Light Rain
8:54 AM 46.9 °F 43.0 °F 86% 30.01 in 4.0 mi SE 6.9 mph - 0.08 in Rain Light Rain
9:16 AM 46.9 °F 43.0 °F 86% 30.00 in 2.0 mi East 6.9 mph - 0.01 in Rain Light Rain
9:30 AM 46.9 °F 43.0 °F 86% 29.99 in 3.0 mi ESE 9.2 mph - 0.02 in Rain Light Rain
9:54 AM 46.9 °F 43.0 °F 86% 29.99 in 4.0 mi SE 10.4 mph - 0.03 in Rain Light Rain
10:10 AM 46.9 °F 43.0 °F 86% 29.98 in 4.0 mi Variable 5.8 mph - 0.00 in   Overcast
10:54 AM 48.0 °F 45.0 °F 89% 29.98 in 3.0 mi SE 10.4 mph - 0.00 in   Overcast
11:44 AM 50.0 °F 46.0 °F 86% 29.95 in 3.0 mi SSE 12.7 mph - N/A   Overcast
11:54 AM 50.0 °F 46.0 °F 86% 29.96 in 4.0 mi SSE 11.5 mph - N/A   Overcast
12:08 PM 50.0 °F 46.9 °F 89% 29.95 in 4.0 mi SSE 10.4 mph - N/A   Overcast
12:25 PM 51.1 °F 46.9 °F 86% 29.94 in 4.0 mi SSE 9.2 mph - N/A   Overcast
12:54 PM 55.0 °F 48.9 °F 80% 29.94 in 8.0 mi South 15.0 mph - N/A   Overcast
1:54 PM 55.9 °F 48.9 °F 77% 29.92 in 10.0 mi SSW 11.5 mph - N/A   Overcast
2:16 PM 57.0 °F 48.9 °F 74% 29.91 in 10.0 mi SSW 9.2 mph - N/A   Overcast
2:54 PM 59.0 °F 50.0 °F 72% 29.89 in 10.0 mi SW 9.2 mph - N/A   Overcast
3:54 PM 59.0 °F 50.0 °F 72% 29.88 in 10.0 mi SW 5.8 mph - N/A   Overcast
4:17 PM 60.1 °F 50.0 °F 69% 29.87 in 10.0 mi West 6.9 mph - N/A   Mostly Cloudy
4:24 PM 61.0 °F 50.0 °F 67% 29.87 in 10.0 mi West 8.1 mph - N/A   Mostly Cloudy
4:52 PM 57.2 °F 50.0 °F 77% 29.87 in 9.0 mi NNW 8.1 mph - N/A   Overcast
4:54 PM 57.9 °F 50.0 °F 75% 29.88 in 9.0 mi North 9.2 mph - N/A   Overcast
5:51 PM 59.0 °F 46.4 °F 63% 29.87 in 9.0 mi North 11.5 mph - N/A   Mostly Cloudy
5:54 PM 60.1 °F 46.0 °F 60% 29.88 in 10.0 mi North 12.7 mph - N/A   Mostly Cloudy
6:54 PM 57.9 °F 46.0 °F 65% 29.89 in 9.0 mi North 5.8 mph - N/A   Mostly Cloudy
7:54 PM 55.0 °F 45.0 °F 69% 29.89 in 10.0 mi Calm Calm - N/A   Mostly Cloudy
8:54 PM 50.0 °F 44.1 °F 80% 29.91 in 8.0 mi Calm Calm - N/A   Partly Cloudy
9:54 PM 51.1 °F 45.0 °F 80% 29.91 in 6.0 mi Calm Calm - N/A   Haze
10:54 PM 48.9 °F 46.0 °F 90% 29.92 in 4.0 mi Calm Calm - N/A   Mostly Cloudy
11:54 PM 46.9 °F 44.1 °F 90% 29.91 in 4.0 mi Calm Calm - N/A   Overcast